Theta_e
325 324 324 326 325 321 326 326 321 325 333 330 321 321 323 322 327 331 329 329 337 343 345 347 346 349 349 348 352 355 356 358 357 357 356 357 356 356 354 353 352 352 353 353 352 352 352 352 351 352 351 351 351 353 354 353 354 355 355 357 357 358 359
324 324 324 325 326 325 323 320 322 329 335 331 325 322 322 324 330 332 324 325 332 331 334 347 348 348 348 348 352 357 357 357 357 356 357 359 359 358 356 353 352 354 352 353 352 352 352 352 352 351 352 353 354 355 354 353 353 353 353 354 354 355 358
324 325 323 321 324 326 323 322 327 329 324 322 323 323 323 325 328 328 322 324 329 328 333 344 347 348 350 348 352 357 358 357 355 356 358 358 358 359 359 355 354 354 352 353 353 352 353 352 352 353 353 353 355 355 356 354 352 352 352 351 351 352 355
323 323 321 316 317 323 325 324 327 327 323 321 322 323 324 324 325 327 325 323 327 333 341 345 348 352 352 348 352 356 357 356 356 356 358 358 359 361 362 359 353 354 352 352 354 352 353 352 352 354 354 354 355 355 357 357 354 352 351 348 348 351 352
319 317 319 317 317 320 320 318 319 320 321 322 324 323 322 322 323 326 326 327 332 344 352 352 352 354 352 349 353 356 355 356 355 356 357 359 360 360 361 360 355 354 353 351 352 353 353 353 352 354 356 355 355 357 358 359 356 354 352 349 348 349 350
313 315 321 321 322 322 321 318 316 319 319 317 319 320 320 319 320 320 320 326 335 349 355 356 352 352 353 350 352 356 355 355 354 355 356 357 358 358 358 359 356 356 356 354 355 353 353 354 352 352 354 355 356 356 358 358 358 356 353 350 349 349 349
317 321 322 321 321 323 324 322 321 323 321 316 313 314 316 316 316 318 316 320 334 350 354 355 352 351 352 351 353 355 355 356 354 354 354 353 356 358 358 357 357 358 357 357 354 354 356 355 353 353 352 351 354 357 359 360 359 358 357 353 351 350 350
322 323 323 321 322 321 321 321 323 322 320 320 319 318 319 317 315 318 316 318 334 352 354 354 354 351 350 352 354 354 355 356 353 354 355 354 356 359 358 357 358 358 356 354 353 353 355 356 356 355 353 352 355 358 358 359 359 359 359 358 356 355 354
318 319 318 317 319 320 319 321 323 323 321 323 323 320 320 316 313 317 316 317 333 352 354 354 354 352 352 353 352 352 354 354 352 353 354 354 357 358 356 355 354 353 352 352 355 354 355 356 357 355 353 353 355 356 357 359 360 360 361 362 363 363 360
314 315 315 314 315 317 319 322 323 323 322 321 319 316 314 313 314 316 314 318 336 355 356 355 355 353 354 354 352 353 354 354 353 352 353 352 355 355 355 354 352 352 351 351 352 351 351 356 357 355 355 354 355 357 359 359 359 361 361 362 366 367 363
317 317 321 324 322 316 315 318 320 321 323 322 322 315 311 314 315 314 316 324 335 345 353 355 354 354 355 356 355 355 355 354 354 353 353 353 353 352 353 353 352 353 354 354 354 351 351 355 356 355 356 357 358 358 358 358 358 361 362 361 363 364 362
323 324 327 328 325 318 315 315 317 321 323 323 321 314 316 322 316 313 324 330 327 336 353 354 353 355 357 357 357 356 357 355 354 354 353 353 353 351 352 353 354 354 354 355 356 355 355 356 355 354 355 357 359 359 357 356 356 359 360 360 360 361 361
324 326 326 326 325 322 320 319 318 320 324 322 319 317 321 326 318 316 331 337 331 339 351 351 352 355 355 355 355 354 354 355 355 355 355 353 352 351 351 353 354 354 354 355 355 355 355 355 355 354 355 354 355 354 355 354 355 356 358 359 358 358 360
322 324 327 327 325 322 322 323 323 324 325 323 321 321 323 329 325 326 339 345 346 352 352 351 353 353 352 352 352 352 354 355 356 355 355 354 354 352 353 353 353 352 354 355 353 354 354 354 354 355 354 352 351 351 352 352 352 353 354 357 358 356 357
322 323 326 327 326 325 324 325 329 328 324 322 324 328 331 333 331 332 342 346 350 354 353 351 351 351 352 352 351 353 354 354 354 355 354 354 354 352 350 351 350 350 352 353 352 354 354 352 353 353 354 353 352 352 352 351 350 349 350 353 357 355 356
323 324 325 328 327 326 324 325 330 333 329 327 331 335 339 337 333 336 342 342 347 351 351 350 350 352 353 352 352 354 353 353 354 355 355 353 350 347 346 348 349 349 349 350 351 351 351 350 351 351 353 354 353 352 352 351 350 350 350 352 354 355 355
323 321 322 327 327 324 322 324 329 336 337 337 338 339 342 341 340 341 341 342 348 351 349 350 351 351 352 353 353 353 353 354 353 352 351 349 347 346 347 348 348 347 347 348 348 348 348 348 348 348 350 350 350 351 352 351 351 352 353 353 353 354 353
323 326 324 324 326 325 325 327 330 338 340 341 340 340 340 340 344 344 345 347 350 348 347 349 351 350 352 352 351 350 350 350 350 348 346 346 347 347 347 346 346 345 345 345 345 345 344 344 344 344 344 345 344 345 347 349 350 350 350 350 349 349 349
325 330 324 320 325 329 329 329 331 335 337 338 339 340 341 341 343 345 347 348 347 346 346 348 349 349 348 347 347 347 346 345 347 347 344 346 348 347 345 344 344 343 343 344 343 342 340 339 340 340 340 339 338 338 339 342 343 343 343 343 343 343 344
325 326 322 322 328 329 328 330 331 331 335 337 336 337 340 340 342 344 347 347 347 347 346 345 346 346 344 343 343 343 343 344 346 346 345 347 347 345 344 344 343 342 341 341 340 338 337 337 337 336 335 334 333 333 333 334 335 336 338 338 338 339 341
325 322 322 327 329 328 329 332 330 328 332 334 334 336 337 340 341 343 346 347 346 346 345 343 342 341 342 343 341 338 339 341 342 344 345 345 344 344 344 343 342 341 340 338 336 335 335 335 334 333 332 332 332 331 331 330 330 331 333 334 334 335 337
324 319 321 326 329 331 333 331 328 328 327 329 332 332 331 336 340 341 344 346 346 344 344 342 342 343 345 344 339 335 334 336 337 341 342 342 342 342 341 341 340 339 339 337 334 333 333 333 332 332 331 330 330 329 329 328 327 327 328 328 329 331 333
326 323 321 320 325 333 335 330 328 327 324 326 331 330 327 331 336 338 341 345 345 343 343 342 343 347 348 343 337 334 333 332 334 338 340 340 340 339 338 338 338 337 337 335 333 333 332 331 331 331 330 329 328 327 327 326 325 325 325 325 326 328 330
327 327 322 319 323 330 332 329 327 326 325 326 328 326 326 329 333 336 338 342 344 345 345 344 345 347 347 343 337 333 333 333 334 335 338 339 339 338 337 336 335 335 334 334 332 331 331 329 328 328 327 328 328 327 327 326 326 327 327 325 325 326 327
324 323 323 326 327 328 329 329 327 328 329 327 323 324 329 331 332 336 337 338 341 344 344 344 343 344 342 338 334 334 334 334 334 334 336 337 337 337 335 334 334 332 331 330 329 328 328 327 326 327 327 328 328 327 326 324 324 326 327 325 324 325 326
322 320 324 330 329 327 328 329 329 330 331 328 326 327 331 330 332 334 336 336 339 341 341 342 342 340 337 334 333 333 332 332 333 334 335 335 334 334 334 333 332 330 330 329 328 327 327 326 326 327 328 328 327 327 326 324 323 324 326 326 325 326 327
322 318 323 328 327 328 330 330 331 332 331 331 331 330 329 330 331 334 335 336 337 338 338 339 338 337 335 334 334 333 331 331 332 334 334 334 334 333 333 332 330 329 329 329 328 327 326 325 325 326 326 327 327 327 327 326 326 325 325 325 324 325 326
322 317 322 327 327 328 329 329 330 330 328 330 331 329 328 329 331 334 334 334 336 337 337 338 337 336 336 335 334 332 331 331 332 333 333 333 333 334 333 331 329 329 329 328 328 327 326 326 325 325 325 326 326 326 326 326 326 326 326 325 325 324 324
325 324 326 328 326 326 327 327 327 326 325 327 327 327 327 328 330 333 334 334 335 335 336 337 337 337 336 334 333 332 331 331 332 333 332 331 333 333 331 330 329 329 329 328 327 327 328 327 326 325 325 325 325 325 325 324 324 325 325 325 326 325 324
325 326 327 327 325 326 325 325 326 326 325 325 325 326 327 328 329 331 332 333 334 334 334 336 337 337 336 335 332 331 330 331 332 332 332 331 331 331 330 330 329 328 327 326 326 326 326 326 326 326 325 325 325 325 324 324 324 324 324 324 324 324 324
322 325 327 327 326 326 325 325 325 326 325 325 325 325 326 327 327 328 331 333 333 332 334 335 336 337 336 335 334 332 330 332 333 332 332 332 330 330 330 329 328 327 325 324 324 325 325 325 325 325 325 324 324 324 324 323 323 324 324 324 324 324 324
325 328 328 327 326 325 326 326 326 325 325 325 325 324 326 327 327 327 329 330 330 331 332 333 334 334 334 334 335 332 331 332 333 333 332 332 330 330 330 328 327 326 325 324 323 324 324 325 325 325 325 325 324 325 324 323 323 324 324 324 324 324 323
327 327 325 325 325 324 325 325 326 326 325 326 325 324 324 325 326 326 327 328 328 329 331 332 332 332 332 334 335 333 332 333 333 332 333 332 331 331 329 328 327 327 325 324 324 324 324 324 323 324 324 324 323 324 323 322 323 322 321 321 322 322 322
325 326 325 324 326 327 326 326 325 325 325 326 326 325 325 324 325 325 326 327 327 329 329 330 331 331 332 333 334 334 333 333 332 332 331 332 332 331 330 329 328 328 326 325 325 325 324 324 323 322 322 322 322 322 321 322 322 322 321 322 321 321 321
326 327 326 324 324 326 328 327 325 324 324 325 326 326 325 325 324 324 325 326 327 328 328 328 328 330 332 331 331 333 333 332 332 333 332 332 332 331 330 329 329 327 326 326 326 325 325 324 323 322 322 322 322 321 321 321 321 321 322 322 321 321 322
326 326 325 324 323 326 328 326 325 325 324 325 326 326 325 325 324 325 325 325 326 327 327 327 327 328 330 330 330 330 331 331 332 333 332 331 331 330 329 329 329 328 326 325 326 325 325 324 322 321 321 321 320 320 320 321 321 321 321 321 320 320 321
325 325 325 324 323 326 327 325 324 325 324 323 324 325 325 325 324 324 325 326 326 325 327 327 326 326 327 328 328 328 329 329 331 331 331 331 329 328 328 329 328 327 326 325 326 325 324 323 322 321 321 320 320 320 320 320 320 320 320 321 320 319 321
Wind_Speed
14 16 14 12 9 7 6 8 9 7 5 5 6 7 7 6 6 3 4 3 2 4 6 5 6 9 10 9 12 16 17 19 18 16 16 16 13 12 12 13 15 18 20 21 21 20 20 20 19 19 19 18 17 16 16 18 18 17 17 16 15 14 13
11 14 15 14 12 8 4 7 10 7 6 7 5 5 6 5 6 4 5 6 5 4 4 5 7 9 10 10 11 14 15 17 17 15 15 14 11 10 11 15 18 18 20 21 20 20 20 20 20 20 19 18 18 17 16 17 18 17 18 17 16 15 14
10 11 12 13 12 13 10 6 8 9 7 7 6 5 5 6 7 4 4 8 7 4 4 6 6 6 8 10 12 13 15 17 16 16 16 15 13 12 13 17 18 16 19 21 20 20 19 18 18 19 19 18 18 17 17 17 17 17 17 16 16 16 15
11 10 10 10 11 13 12 8 7 10 8 6 6 5 5 5 4 3 4 6 2 3 5 9 8 6 7 9 12 13 14 15 15 15 17 15 13 10 8 12 16 16 20 22 20 19 19 19 18 18 18 18 18 18 17 16 17 16 16 16 15 16 15
11 9 9 11 11 12 11 8 7 9 8 7 7 6 6 5 3 3 4 4 0 2 1 7 9 9 9 9 11 11 11 13 14 15 17 15 12 9 6 9 13 14 17 21 21 20 20 20 18 17 17 17 17 17 16 16 17 17 16 15 15 15 15
9 9 11 14 14 12 11 10 9 9 9 8 8 8 8 8 7 6 6 3 3 1 2 4 6 7 8 9 11 11 9 13 14 13 15 15 12 10 8 8 9 11 14 15 16 16 18 19 18 16 13 12 13 15 15 15 16 16 16 15 14 14 14
8 10 13 15 17 15 13 12 11 11 10 9 9 9 8 8 9 8 8 5 2 1 2 4 5 5 6 7 9 10 9 11 13 12 14 15 13 11 9 6 6 9 9 8 4 9 14 17 16 14 13 13 13 13 13 13 13 13 14 14 15 14 14
6 9 12 14 16 15 11 11 12 12 11 10 10 10 7 8 8 6 7 6 3 2 2 3 5 6 7 7 9 10 8 8 11 12 13 14 14 12 10 8 6 8 13 13 4 7 11 13 15 15 15 16 13 10 11 11 11 11 11 12 13 14 14
5 7 9 11 12 11 8 9 13 13 15 15 12 10 9 8 9 10 8 5 2 3 1 2 5 7 9 9 10 10 9 7 8 12 12 13 13 12 11 9 7 9 11 9 5 3 1 5 11 13 13 12 10 9 9 8 8 9 10 10 10 12 13
8 7 6 5 7 9 8 10 13 16 19 19 12 8 9 9 10 11 9 4 3 4 2 3 6 8 10 11 10 9 9 9 9 11 12 12 12 12 11 8 7 7 8 7 7 8 4 1 6 10 9 9 9 9 8 7 7 8 10 10 10 10 12
7 4 4 7 9 10 11 13 15 16 19 17 11 8 9 7 7 8 7 4 6 5 2 4 6 8 10 11 9 6 7 10 11 11 12 12 11 11 10 9 8 7 8 9 10 12 11 6 4 7 7 8 9 9 9 8 7 8 10 10 10 10 12
10 7 7 10 12 13 15 17 17 13 12 13 11 10 6 2 4 6 3 2 6 8 6 6 6 8 9 9 8 5 3 8 11 11 12 12 11 11 11 10 10 9 9 9 9 11 11 8 7 7 6 7 8 8 8 8 8 9 10 10 11 11 11
12 12 9 10 13 14 13 14 14 12 12 13 13 14 10 4 5 4 7 7 1 5 8 6 5 7 9 9 8 6 3 5 10 11 12 12 11 12 12 10 10 8 8 8 8 8 8 8 7 7 7 9 9 8 8 8 9 10 9 10 11 12 11
11 12 9 11 14 11 7 7 8 10 13 14 13 14 11 5 5 5 4 8 7 6 4 6 7 8 10 9 8 6 4 5 9 11 12 11 11 12 12 11 10 8 8 9 9 9 9 8 8 8 7 9 10 11 12 12 13 14 12 12 12 13 14
8 10 11 11 10 7 5 4 6 9 11 12 9 7 5 3 5 5 5 7 5 5 5 6 7 8 8 8 8 7 6 6 8 10 12 12 11 10 8 7 8 7 6 8 8 8 8 7 8 8 8 7 9 10 11 14 16 16 15 14 14 15 15
5 10 12 10 10 11 8 2 2 2 4 5 2 0 3 1 3 5 6 5 3 5 6 6 6 7 8 8 8 8 6 6 8 10 12 12 11 7 4 4 6 6 6 7 7 8 8 7 6 5 6 6 8 9 9 12 14 14 15 17 17 17 16
5 7 8 8 8 10 8 3 6 6 4 4 3 5 2 3 2 2 3 4 4 5 6 5 7 7 8 8 8 8 7 7 8 10 11 10 9 8 7 7 8 7 8 9 9 9 8 7 7 5 4 3 1 3 5 8 11 11 11 13 15 15 15
5 7 6 8 8 5 4 4 6 8 4 2 4 8 7 8 8 4 3 5 6 6 6 6 7 7 7 8 8 8 8 8 7 8 6 5 9 13 11 10 10 10 10 10 10 10 9 9 8 8 9 9 8 7 4 0 4 4 4 5 5 5 8
3 7 10 8 5 2 1 4 7 6 5 4 9 12 12 12 11 8 7 7 6 7 7 7 8 10 11 11 10 11 11 7 5 6 3 3 7 14 13 11 12 12 12 11 11 11 11 10 9 9 9 10 11 11 9 7 7 8 6 5 4 4 4
5 5 7 5 2 1 2 5 8 6 2 3 6 9 12 13 11 8 7 7 8 9 10 9 8 11 12 11 11 12 11 7 5 6 4 1 4 11 12 13 14 13 12 12 12 12 12 12 11 11 10 10 11 13 13 13 14 13 10 8 8 8 6
6 5 3 3 2 2 0 4 6 7 6 4 3 6 10 11 9 8 7 7 8 9 9 8 8 10 10 9 9 11 10 8 8 10 8 6 9 13 15 15 16 14 14 14 14 14 14 13 13 12 11 12 13 15 15 16 17 16 13 12 12 12 11
7 5 4 5 4 2 0 3 6 7 7 8 7 3 7 9 9 8 7 6 7 7 7 8 9 8 8 7 6 9 11 11 10 11 10 9 12 15 15 15 15 15 15 15 15 16 15 15 14 13 13 14 15 16 16 17 18 18 17 16 15 14 14
5 5 5 5 5 3 2 4 7 8 7 9 8 2 5 9 10 8 7 6 5 4 6 7 6 6 7 6 5 7 10 11 10 10 10 11 11 11 11 13 15 16 16 17 17 17 16 16 14 13 13 14 14 15 15 16 17 17 17 18 16 14 13
6 6 5 3 2 4 4 4 5 6 7 7 6 2 4 8 9 7 7 7 6 4 5 6 4 3 5 5 5 6 8 9 10 9 7 9 10 10 11 12 14 16 17 17 17 16 15 13 12 10 11 12 12 11 11 11 12 12 12 14 15 14 13
7 7 2 3 3 4 4 3 4 4 4 5 4 1 4 7 7 7 7 7 7 5 5 6 3 2 5 8 9 8 7 9 10 9 8 11 15 14 12 11 12 14 15 16 16 16 14 12 10 9 9 10 10 10 9 9 10 9 9 11 12 13 12
5 4 2 3 3 3 4 2 2 5 4 1 2 4 4 5 5 6 7 6 7 6 6 5 5 6 8 11 12 10 9 9 9 9 10 13 17 15 12 11 11 13 14 14 15 15 13 11 10 9 9 10 10 9 9 9 9 8 8 9 9 10 10
3 4 3 2 2 4 6 2 1 5 4 3 4 2 3 5 5 4 5 6 7 6 5 5 6 9 11 12 11 10 9 9 9 9 10 11 14 14 12 11 12 12 13 13 13 13 13 11 11 10 9 10 9 9 9 9 8 7 7 7 7 7 8
3 2 4 3 3 6 8 5 5 6 6 5 2 2 5 5 5 4 4 5 6 5 5 6 6 8 9 10 9 9 8 9 9 10 10 10 12 13 12 11 12 12 13 13 12 11 11 10 10 11 10 10 9 9 8 7 6 7 7 6 6 6 6
4 4 6 5 5 7 9 8 8 7 7 6 5 6 7 5 5 5 4 4 4 4 4 5 4 5 6 7 8 8 8 9 9 10 11 12 12 12 12 11 11 11 11 12 11 11 10 9 9 10 10 10 10 8 7 6 5 6 6 5 6 6 5
7 7 7 6 7 8 8 8 8 7 7 6 6 7 7 6 7 6 5 5 5 4 4 4 3 3 3 5 7 7 6 7 8 8 10 10 11 12 12 10 10 11 11 11 10 11 10 9 9 9 10 10 10 8 6 6 5 5 5 5 5 5 4
3 4 6 7 6 7 7 7 7 6 7 7 6 6 6 6 7 7 6 6 5 3 3 2 2 4 4 4 6 7 5 6 7 8 8 8 9 12 12 10 10 10 10 10 10 11 10 10 9 9 9 9 9 7 6 6 5 5 4 4 4 3 3
2 4 8 7 6 5 4 4 5 6 6 6 6 5 5 6 6 6 7 6 5 4 4 3 2 3 4 4 5 6 6 6 7 7 8 7 8 11 11 10 9 9 9 10 10 11 10 9 9 9 8 8 8 7 6 5 4 3 3 2 2 2 2
4 5 7 6 5 5 4 3 5 6 5 5 5 4 5 6 6 6 6 7 6 6 5 4 3 1 2 4 4 5 6 7 7 7 8 8 9 10 11 11 10 9 9 10 10 10 10 9 9 9 8 7 6 6 5 4 3 3 2 1 1 1 1
3 4 6 5 2 3 5 5 5 5 4 4 4 4 5 6 6 5 5 6 6 6 6 5 3 2 2 2 2 4 5 6 6 7 8 9 9 10 11 11 11 11 10 10 10 10 9 8 8 8 7 6 6 5 5 5 4 3 2 1 1 1 2
4 5 5 3 1 2 6 6 4 4 3 3 4 4 4 4 5 5 5 5 5 5 5 5 4 3 2 1 1 2 4 5 5 7 8 9 9 10 10 10 11 12 11 10 10 10 9 8 8 8 7 6 6 5 5 4 4 3 2 1 1 2 2
5 5 4 3 1 3 7 5 4 4 3 2 3 3 3 3 4 5 5 5 5 5 4 4 5 4 3 2 2 3 3 3 4 5 7 8 9 10 11 11 12 13 12 11 11 10 9 9 8 8 8 7 6 6 6 5 4 3 2 1 1 2 3
3 5 5 3 2 5 6 5 4 4 2 1 2 3 3 4 4 4 4 4 4 4 4 4 4 4 4 2 2 3 3 3 2 2 5 7 8 10 11 12 13 13 13 13 12 11 10 10 9 8 8 8 7 7 7 6 5 4 3 2 2 3 2
Wind_Direction
188 194 220 223 222 222 190 206 229 220 184 192 235 255 255 258 262 236 196 239 27 117 175 174 147 150 149 152 149 150 163 169 172 180 183 184 185 182 183 184 183 179 176 177 176 175 177 178 181 180 175 175 175 175 177 181 184 186 190 191 189 189 189
194 192 213 217 229 248 214 200 216 207 183 182 204 252 249 244 251 217 180 217 214 194 199 169 172 167 153 156 147 143 158 167 174 185 180 176 178 185 190 189 185 179 177 179 177 178 180 177 180 180 176 176 178 178 180 182 184 189 193 194 194 193 191
189 181 209 216 221 239 250 244 212 198 199 192 185 226 239 227 241 238 214 227 214 186 180 165 180 190 163 154 145 151 167 170 177 184 176 174 177 185 191 185 181 178 177 179 179 179 178 177 182 179 175 179 181 183 185 186 188 191 196 197 195 195 195
186 178 207 213 203 215 238 266 234 206 209 218 203 210 237 243 256 266 259 254 238 95 146 159 171 186 168 151 151 166 176 170 177 182 174 175 176 177 188 180 175 179 179 177 179 181 176 177 182 177 177 184 184 186 187 188 193 195 199 201 195 196 200
191 190 205 213 204 197 209 231 232 210 204 219 222 217 223 235 239 233 256 262 103 30 135 159 161 157 155 165 164 166 173 169 175 179 171 170 167 161 180 181 169 174 181 177 177 182 179 177 179 175 180 186 185 188 187 187 195 198 200 203 198 199 203
202 202 199 213 219 206 201 210 219 222 214 209 220 224 217 225 232 234 253 244 143 299 300 147 156 147 147 167 156 146 166 168 166 171 168 168 167 160 168 178 167 172 181 173 172 182 178 174 178 174 175 190 192 189 186 187 197 199 199 202 201 201 203
228 216 198 208 224 221 208 207 215 228 229 216 223 227 213 224 237 237 249 243 155 266 280 122 130 135 134 141 129 131 156 157 151 159 165 167 166 154 146 149 153 155 141 110 135 207 190 171 169 162 166 197 205 188 178 185 194 196 196 199 200 201 204
252 224 199 196 218 227 215 207 211 224 232 225 232 243 234 231 238 236 248 247 171 193 267 100 111 122 125 123 115 123 139 144 147 156 164 165 158 143 131 115 97 98 89 76 77 225 204 169 159 159 171 189 192 174 170 182 190 191 190 192 193 197 203
231 216 198 186 202 219 225 216 205 214 232 230 228 244 250 246 238 229 238 252 147 127 150 129 131 127 121 115 113 124 136 139 147 154 161 164 156 150 142 123 97 89 93 95 96 102 162 151 146 155 165 165 159 158 169 178 184 185 182 182 183 187 198
218 214 208 201 204 205 223 228 205 205 224 230 230 234 233 240 242 232 236 240 116 107 143 161 141 128 119 113 114 127 138 138 143 150 154 158 158 160 156 135 114 105 122 150 141 122 135 111 106 122 133 138 144 154 163 171 178 178 177 180 180 182 193
242 250 272 268 243 209 209 224 218 212 216 223 235 238 225 237 250 239 239 213 145 124 175 181 144 129 123 116 113 112 123 135 138 140 146 153 156 159 157 144 135 133 142 157 157 158 176 189 139 127 130 136 143 149 157 168 176 179 181 185 190 193 199
243 247 258 256 246 222 209 215 220 220 215 215 228 238 241 298 257 244 289 262 184 158 166 181 152 131 125 116 108 90 95 136 139 138 141 147 151 153 154 153 152 154 153 153 158 165 173 178 172 170 169 162 158 159 167 175 184 193 192 193 199 202 204
232 233 239 238 237 232 219 215 215 212 213 216 224 236 245 264 254 273 6 7 336 143 146 156 140 127 121 111 106 102 88 113 129 139 141 143 150 150 147 146 144 147 149 148 154 157 156 161 166 171 183 189 189 190 188 186 191 202 204 204 209 209 208
232 221 227 231 232 234 234 239 241 228 220 217 220 233 243 251 263 276 44 55 41 44 98 120 112 113 115 111 113 122 131 122 126 137 137 134 138 135 128 128 131 139 145 148 156 158 155 160 172 182 192 198 202 203 203 204 205 207 211 215 219 220 217
243 210 212 219 216 208 207 240 252 240 230 224 220 242 262 245 239 226 121 96 74 57 69 89 101 110 117 127 131 127 137 148 143 141 135 125 116 108 102 109 125 137 144 151 155 149 141 146 168 189 195 194 201 204 208 216 221 222 222 220 220 223 222
251 213 205 199 185 172 155 117 335 257 246 238 179 45 320 280 213 183 131 116 119 97 85 93 115 122 124 132 131 125 133 147 146 141 129 114 107 113 130 127 128 135 136 135 130 119 118 124 139 178 196 198 206 210 214 222 226 227 226 221 221 223 223
248 222 197 182 187 172 140 53 5 33 3 293 144 118 63 56 89 196 156 127 122 107 106 127 135 131 133 132 129 131 133 127 120 117 112 111 124 146 154 132 116 113 113 114 113 109 105 96 87 80 77 84 147 204 217 225 225 226 225 221 223 226 226
276 280 240 192 193 181 123 13 11 60 55 318 82 75 46 54 75 99 123 125 130 124 123 136 132 116 104 103 101 96 95 93 89 93 103 142 148 137 127 116 105 98 99 103 105 103 94 85 79 70 64 63 57 53 53 176 212 197 178 184 200 206 205
255 282 257 211 180 181 133 27 23 63 102 83 70 61 44 45 62 85 112 121 119 113 106 107 111 99 83 81 81 72 72 76 88 107 133 219 148 127 119 113 107 104 107 106 99 94 89 87 86 76 70 68 59 55 60 66 72 75 89 111 100 97 143
218 232 243 214 152 174 137 64 26 9 40 68 71 69 53 41 41 54 77 88 90 99 105 101 102 104 96 89 83 76 80 95 110 122 141 214 125 116 112 111 112 111 111 107 98 93 91 89 87 82 77 74 70 71 73 71 70 69 71 78 79 83 102
244 207 172 144 158 237 55 57 22 3 7 356 1 75 66 46 38 43 56 80 92 98 110 115 114 113 106 95 78 64 73 98 108 111 122 124 109 103 101 106 111 109 106 104 101 99 95 92 91 92 94 93 89 83 75 69 72 73 68 65 67 69 71
253 219 168 150 163 191 60 36 10 2 1 341 329 33 74 47 33 37 46 73 93 100 124 140 137 121 101 93 77 50 50 66 73 75 81 84 87 96 105 111 111 107 103 102 102 101 96 94 95 97 99 97 91 83 78 77 78 75 69 67 65 61 58
244 232 201 187 174 152 87 31 5 354 354 344 330 345 73 35 18 23 38 55 70 98 133 146 146 125 103 97 93 69 59 64 65 61 62 65 69 80 98 107 107 106 104 102 103 102 99 97 98 97 96 92 86 81 80 82 79 72 70 73 72 68 65
239 233 202 170 118 94 69 24 352 351 356 336 296 213 72 19 1 4 25 45 50 64 107 111 97 105 122 131 128 106 89 86 87 89 94 100 98 90 88 99 109 112 112 110 107 102 98 96 94 91 92 91 89 88 86 82 78 70 66 72 75 73 70
239 237 188 94 87 82 50 14 353 352 338 301 268 155 40 3 352 356 8 39 55 48 74 96 102 141 148 149 148 138 121 107 101 102 106 108 105 98 98 114 121 115 112 111 107 104 101 96 88 84 88 88 88 93 93 84 81 78 72 76 80 74 66
223 219 149 111 119 57 1 341 16 348 308 235 91 64 32 360 5 11 6 29 61 62 63 81 111 135 138 143 149 146 138 131 127 125 120 111 109 112 122 129 117 103 101 104 105 106 106 101 94 89 88 88 87 89 89 87 91 94 84 82 82 73 67
217 192 144 136 125 36 355 316 58 8 9 97 95 78 68 37 28 36 23 23 43 65 79 85 102 124 135 144 145 141 138 139 136 132 128 123 123 128 134 127 118 114 113 110 107 108 107 104 102 98 94 93 92 88 84 83 91 97 92 90 90 80 75
314 218 105 92 89 52 32 47 83 60 62 82 69 59 77 59 35 43 50 41 34 39 72 93 105 121 133 139 141 139 139 139 138 134 133 135 136 136 133 127 124 122 115 108 105 105 105 105 106 105 103 102 99 93 86 80 79 87 91 94 95 89 85
39 61 86 95 92 76 65 71 85 87 85 78 54 59 70 56 38 39 49 72 63 43 69 98 111 122 129 139 143 142 136 134 138 139 138 143 147 142 135 130 127 121 114 111 109 106 103 104 106 109 111 111 107 100 95 90 85 83 84 84 83 85 88
91 83 95 107 96 87 85 82 79 77 76 68 57 61 62 48 47 46 40 54 59 52 71 101 122 124 133 148 143 139 135 131 133 138 144 152 153 144 138 136 134 130 124 119 115 109 106 106 107 111 115 114 111 109 106 104 96 85 80 79 75 74 78
133 109 110 110 100 99 101 100 99 89 72 62 56 59 62 56 51 48 43 45 52 55 60 70 106 120 143 161 145 141 142 133 133 140 145 148 145 140 140 143 140 133 125 118 115 111 108 107 108 110 113 114 115 118 119 112 106 101 98 96 94 93 96
107 99 107 109 107 108 105 99 106 100 82 75 69 60 67 72 65 55 48 42 38 44 51 46 65 114 148 156 149 154 156 144 143 146 143 141 141 141 144 145 142 135 126 121 119 116 112 111 112 114 117 118 120 122 117 107 103 106 107 103 110 123 129
127 123 136 142 135 133 128 93 86 87 82 84 78 61 61 69 65 60 58 50 39 33 36 39 37 59 115 131 152 174 166 152 152 155 155 158 157 151 149 147 142 137 132 129 127 125 123 125 125 123 122 123 124 123 118 115 113 108 99 74 57 71 91
156 134 147 148 142 144 133 109 94 90 85 84 79 61 53 54 49 42 48 55 53 42 33 30 29 36 72 105 155 174 159 155 167 169 166 167 166 161 157 153 148 145 143 141 137 133 134 137 135 132 131 133 136 132 122 122 127 126 123 122 92 64 40
92 108 125 120 52 96 115 114 109 98 83 78 80 65 43 44 45 36 33 41 48 47 36 26 23 21 24 34 211 187 164 160 174 180 176 174 174 172 169 163 155 150 149 149 147 144 145 146 143 141 140 139 139 133 125 127 133 133 134 137 123 102 67
112 116 107 87 49 104 119 128 121 101 87 77 91 80 50 43 41 35 37 36 33 37 39 33 31 24 7 348 294 261 225 187 181 184 185 188 189 187 183 175 162 156 156 158 157 154 156 156 154 151 151 150 145 139 135 136 134 130 134 141 104 89 82
102 100 96 96 95 108 123 137 128 111 101 66 89 88 67 52 34 23 39 40 27 31 37 35 40 35 17 358 322 294 273 249 230 196 196 206 207 200 193 182 172 167 166 164 163 164 164 163 163 161 157 155 152 146 142 140 137 132 129 110 86 71 66